Time,TemperatureF,DewpointF,PressureIn,WindDirection,WindDirectionDegrees,WindSpeedMPH,WindSpeedGustMPH,Humidity,HourlyPrecipIn,Conditions,Clouds,dailyrainin,SoftwareType,DateUTC
2013-08-20 00:02:00,65.7,61.4,29.88,SW,229,0.0,0.0,86,0.00,,,0.00,Wunderground v.1.15,2013-08-20 07:02:00,
2013-08-20 00:12:00,65.7,61.7,29.88,SW,229,0.0,0.0,87,0.00,,,0.00,Wunderground v.1.15,2013-08-20 07:12:00,
2013-08-20 00:17:00,65.7,61.7,29.87,SW,229,1.0,2.0,87,0.00,,,0.00,Wunderground v.1.15,2013-08-20 07:17:00,
2013-08-20 00:27:00,65.6,61.6,29.88,SW,229,1.0,1.0,87,0.00,,,0.00,Wunderground v.1.15,2013-08-20 07:27:00,
2013-08-20 00:32:00,65.5,61.5,29.88,SW,229,1.0,1.0,87,0.00,,,0.00,Wunderground v.1.15,2013-08-20 07:32:00,
2013-08-20 00:42:00,65.3,61.3,29.88,SW,229,1.0,1.0,87,0.00,,,0.00,Wunderground v.1.15,2013-08-20 07:42:00,
2013-08-20 00:47:00,65.2,61.6,29.88,SW,229,1.0,1.0,88,0.00,,,0.00,Wunderground v.1.15,2013-08-20 07:47:00,
2013-08-20 00:57:00,65.0,61.4,29.88,SW,229,0.0,1.0,88,0.00,,,0.00,Wunderground v.1.15,2013-08-20 07:57:00,
2013-08-20 01:07:00,64.9,61.3,29.87,SW,229,0.0,2.0,88,0.00,,,0.00,Wunderground v.1.15,2013-08-20 08:07:00,
2013-08-20 01:12:00,64.8,61.2,29.88,SW,229,1.0,1.0,88,0.00,,,0.00,Wunderground v.1.15,2013-08-20 08:12:00,
2013-08-20 01:17:00,64.8,61.5,29.88,West,274,2.0,2.0,89,0.00,,,0.00,Wunderground v.1.15,2013-08-20 08:17:00,
2013-08-20 01:27:00,64.6,61.3,29.87,West,275,1.0,2.0,89,0.00,,,0.00,Wunderground v.1.15,2013-08-20 08:27:00,
2013-08-20 01:37:00,64.6,61.3,29.87,West,275,1.0,1.0,89,0.00,,,0.00,Wunderground v.1.15,2013-08-20 08:37:00,
2013-08-20 01:47:00,64.5,61.2,29.87,West,275,0.0,2.0,89,0.00,,,0.00,Wunderground v.1.15,2013-08-20 08:47:00,
2013-08-20 01:52:00,64.4,61.1,29.87,West,275,1.0,1.0,89,0.00,,,0.00,Wunderground v.1.15,2013-08-20 08:52:00,
2013-08-20 01:57:00,64.3,61.0,29.87,West,275,1.0,1.0,89,0.00,,,0.00,Wunderground v.1.15,2013-08-20 08:57:00,
2013-08-20 02:07:00,64.2,61.2,29.87,West,275,1.0,2.0,90,0.00,,,0.00,Wunderground v.1.15,2013-08-20 09:07:00,
2013-08-20 02:12:00,64.2,61.2,29.87,West,275,1.0,1.0,90,0.00,,,0.00,Wunderground v.1.15,2013-08-20 09:12:00,
2013-08-20 02:17:00,64.2,61.2,29.87,West,275,0.0,1.0,90,0.00,,,0.00,Wunderground v.1.15,2013-08-20 09:17:00,
2013-08-20 02:27:00,64.3,61.3,29.87,West,275,1.0,1.0,90,0.00,,,0.00,Wunderground v.1.15,2013-08-20 09:27:00,
2013-08-20 02:32:00,64.4,61.4,29.87,West,275,1.0,1.0,90,0.00,,,0.00,Wunderground v.1.15,2013-08-20 09:32:00,
2013-08-20 02:37:00,64.5,61.5,29.87,West,275,0.0,1.0,90,0.00,,,0.00,Wunderground v.1.15,2013-08-20 09:37:00,
2013-08-20 02:42:00,64.5,61.5,29.87,West,275,1.0,1.0,90,0.00,,,0.00,Wunderground v.1.15,2013-08-20 09:42:00,
2013-08-20 02:52:00,64.7,61.4,29.87,WSW,257,1.0,3.0,89,0.00,,,0.00,Wunderground v.1.15,2013-08-20 09:52:00,
2013-08-20 02:57:00,64.9,61.6,29.87,WSW,242,2.0,3.0,89,0.00,,,0.00,Wunderground v.1.15,2013-08-20 09:57:00,
2013-08-20 03:02:00,64.8,61.5,29.87,WNW,286,1.0,1.0,89,0.00,,,0.00,Wunderground v.1.15,2013-08-20 10:02:00,
2013-08-20 03:12:00,64.7,61.4,29.87,WNW,286,1.0,2.0,89,0.00,,,0.00,Wunderground v.1.15,2013-08-20 10:12:00,
2013-08-20 03:22:00,64.6,61.3,29.87,WNW,286,1.0,1.0,89,0.00,,,0.00,Wunderground v.1.15,2013-08-20 10:22:00,
2013-08-20 03:32:00,64.5,61.2,29.87,WNW,285,1.0,1.0,89,0.00,,,0.00,Wunderground v.1.15,2013-08-20 10:32:00,
2013-08-20 03:37:00,64.5,61.2,29.86,WNW,285,1.0,1.0,89,0.00,,,0.00,Wunderground v.1.15,2013-08-20 10:37:00,
2013-08-20 03:42:00,64.5,61.2,29.87,SW,214,1.0,1.0,89,0.00,,,0.00,Wunderground v.1.15,2013-08-20 10:42:00,
2013-08-20 03:52:00,64.5,61.2,29.87,SW,214,1.0,1.0,89,0.00,,,0.00,Wunderground v.1.15,2013-08-20 10:52:00,
2013-08-20 03:57:00,64.4,61.1,29.87,SW,214,1.0,1.0,89,0.00,,,0.00,Wunderground v.1.15,2013-08-20 10:57:00,
2013-08-20 04:07:00,64.5,61.2,29.86,SW,214,0.0,2.0,89,0.00,,,0.00,Wunderground v.1.15,2013-08-20 11:07:00,
2013-08-20 04:12:00,64.5,61.2,29.86,SW,214,1.0,1.0,89,0.00,,,0.00,Wunderground v.1.15,2013-08-20 11:12:00,
2013-08-20 04:17:00,64.4,61.1,29.86,SW,214,0.0,1.0,89,0.00,,,0.00,Wunderground v.1.15,2013-08-20 11:17:00,
2013-08-20 04:27:00,64.4,61.1,29.86,SW,214,1.0,1.0,89,0.00,,,0.00,Wunderground v.1.15,2013-08-20 11:27:00,
2013-08-20 04:37:00,64.5,61.2,29.86,SW,219,1.0,2.0,89,0.00,,,0.00,Wunderground v.1.15,2013-08-20 11:37:00,
2013-08-20 04:42:00,64.4,61.1,29.86,SW,219,1.0,1.0,89,0.00,,,0.00,Wunderground v.1.15,2013-08-20 11:42:00,
2013-08-20 04:52:00,64.5,61.2,29.86,SW,219,1.0,1.0,89,0.00,,,0.00,Wunderground v.1.15,2013-08-20 11:52:00,
2013-08-20 04:57:00,64.5,61.5,29.86,SW,219,0.0,1.0,90,0.00,,,0.00,Wunderground v.1.15,2013-08-20 11:57:00,
2013-08-20 05:02:00,64.4,61.1,29.86,SW,219,0.0,0.0,89,0.00,,,0.00,Wunderground v.1.15,2013-08-20 12:02:00,
2013-08-20 05:07:00,64.5,61.2,29.86,SW,219,1.0,1.0,89,0.00,,,0.00,Wunderground v.1.15,2013-08-20 12:07:00,
2013-08-20 05:12:00,64.4,61.1,29.86,SW,219,1.0,1.0,89,0.00,,,0.00,Wunderground v.1.15,2013-08-20 12:12:00,
2013-08-20 05:17:00,64.4,61.1,29.86,SW,219,1.0,1.0,89,0.00,,,0.00,Wunderground v.1.15,2013-08-20 12:17:00,
2013-08-20 05:22:00,64.3,61.0,29.86,SW,219,0.0,0.0,89,0.00,,,0.00,Wunderground v.1.15,2013-08-20 12:22:00,
2013-08-20 05:27:00,64.3,61.0,29.86,SW,219,0.0,0.0,89,0.00,,,0.00,Wunderground v.1.15,2013-08-20 12:27:00,
2013-08-20 05:32:00,64.3,61.0,29.86,SW,219,0.0,0.0,89,0.00,,,0.00,Wunderground v.1.15,2013-08-20 12:32:00,
2013-08-20 05:42:00,64.2,60.9,29.86,NNW,334,1.0,3.0,89,0.00,,,0.00,Wunderground v.1.15,2013-08-20 12:42:00,
2013-08-20 05:52:00,64.1,61.1,29.86,NNW,334,1.0,1.0,90,0.00,,,0.00,Wunderground v.1.15,2013-08-20 12:52:00,
2013-08-20 05:57:00,64.0,61.0,29.86,NNW,334,0.0,1.0,90,0.00,,,0.00,Wunderground v.1.15,2013-08-20 12:57:00,
2013-08-20 06:07:00,64.1,61.1,29.87,NW,311,1.0,2.0,90,0.00,,,0.00,Wunderground v.1.15,2013-08-20 13:07:00,
2013-08-20 06:17:00,64.2,61.2,29.87,WNW,298,1.0,2.0,90,0.00,,,0.00,Wunderground v.1.15,2013-08-20 13:17:00,
2013-08-20 06:22:00,64.2,61.2,29.88,WNW,298,1.0,1.0,90,0.00,,,0.00,Wunderground v.1.15,2013-08-20 13:22:00,
2013-08-20 06:27:00,64.3,61.0,29.88,WNW,298,1.0,1.0,89,0.00,,,0.00,Wunderground v.1.15,2013-08-20 13:27:00,
2013-08-20 06:32:00,64.3,61.3,29.88,WNW,298,1.0,1.0,90,0.00,,,0.00,Wunderground v.1.15,2013-08-20 13:32:00,
2013-08-20 06:37:00,64.3,61.0,29.88,WSW,252,1.0,1.0,89,0.00,,,0.00,Wunderground v.1.15,2013-08-20 13:37:00,
2013-08-20 06:42:00,64.3,61.3,29.88,WSW,247,1.0,1.0,90,0.00,,,0.00,Wunderground v.1.15,2013-08-20 13:42:00,
2013-08-20 06:52:00,64.3,61.3,29.88,WSW,247,0.0,0.0,90,0.00,,,0.00,Wunderground v.1.15,2013-08-20 13:52:00,
2013-08-20 06:57:00,64.3,61.0,29.88,West,263,1.0,1.0,89,0.00,,,0.00,Wunderground v.1.15,2013-08-20 13:57:00,
2013-08-20 07:02:00,64.3,61.0,29.88,West,263,1.0,1.0,89,0.00,,,0.00,Wunderground v.1.15,2013-08-20 14:02:00,
2013-08-20 07:07:00,64.3,61.0,29.88,West,263,1.0,1.0,89,0.00,,,0.00,Wunderground v.1.15,2013-08-20 14:07:00,
2013-08-20 07:12:00,64.3,61.0,29.88,West,263,1.0,1.0,89,0.00,,,0.00,Wunderground v.1.15,2013-08-20 14:12:00,
2013-08-20 07:17:00,64.3,61.0,29.89,West,263,1.0,1.0,89,0.00,,,0.00,Wunderground v.1.15,2013-08-20 14:17:00,
2013-08-20 07:27:00,64.3,61.0,29.89,SW,230,1.0,2.0,89,0.00,,,0.00,Wunderground v.1.15,2013-08-20 14:27:00,
2013-08-20 07:32:00,64.5,61.2,29.89,SW,230,1.0,1.0,89,0.00,,,0.00,Wunderground v.1.15,2013-08-20 14:32:00,
2013-08-20 07:37:00,64.5,61.2,29.89,SW,230,1.0,1.0,89,0.00,,,0.00,Wunderground v.1.15,2013-08-20 14:37:00,
2013-08-20 07:47:00,64.6,61.0,29.89,SW,230,1.0,2.0,88,0.00,,,0.00,Wunderground v.1.15,2013-08-20 14:47:00,
2013-08-20 07:52:00,64.7,61.4,29.89,SW,230,1.0,1.0,89,0.00,,,0.00,Wunderground v.1.15,2013-08-20 14:52:00,
2013-08-20 07:57:00,64.8,61.2,29.89,SW,230,0.0,2.0,88,0.00,,,0.00,Wunderground v.1.15,2013-08-20 14:57:00,
2013-08-20 08:07:00,65.2,61.2,29.90,SW,230,1.0,1.0,87,0.00,,,0.00,Wunderground v.1.15,2013-08-20 15:07:00,
2013-08-20 08:12:00,65.2,61.2,29.90,SW,230,1.0,1.0,87,0.00,,,0.00,Wunderground v.1.15,2013-08-20 15:12:00,
2013-08-20 08:22:00,65.6,61.6,29.90,SW,230,1.0,1.0,87,0.00,,,0.00,Wunderground v.1.15,2013-08-20 15:22:00,
2013-08-20 08:32:00,65.8,61.5,29.90,SW,234,1.0,5.0,86,0.00,,,0.00,Wunderground v.1.15,2013-08-20 15:32:00,
2013-08-20 08:37:00,65.8,61.5,29.90,SW,236,3.0,5.0,86,0.00,,,0.00,Wunderground v.1.15,2013-08-20 15:37:00,
2013-08-20 08:47:00,66.0,61.7,29.90,SW,227,2.0,2.0,86,0.00,,,0.00,Wunderground v.1.15,2013-08-20 15:47:00,
2013-08-20 08:52:00,66.2,61.9,29.90,South,191,1.0,2.0,86,0.00,,,0.00,Wunderground v.1.15,2013-08-20 15:52:00,
2013-08-20 08:57:00,66.3,61.7,29.90,SW,235,2.0,3.0,85,0.00,,,0.00,Wunderground v.1.15,2013-08-20 15:57:00,
2013-08-20 09:07:00,66.6,61.9,29.91,West,281,2.0,3.0,85,0.00,,,0.00,Wunderground v.1.15,2013-08-20 16:07:00,
2013-08-20 09:12:00,66.8,61.8,29.91,WSW,237,3.0,5.0,84,0.00,,,0.00,Wunderground v.1.15,2013-08-20 16:12:00,
2013-08-20 09:22:00,66.6,61.6,29.91,SSW,194,4.0,4.0,84,0.00,,,0.00,Wunderground v.1.15,2013-08-20 16:22:00,
2013-08-20 09:32:00,67.2,62.2,29.91,SSW,195,1.0,2.0,84,0.00,,,0.00,Wunderground v.1.15,2013-08-20 16:32:00,
2013-08-20 09:37:00,68.0,62.6,29.91,West,281,1.0,4.0,83,0.00,,,0.00,Wunderground v.1.15,2013-08-20 16:37:00,
2013-08-20 09:42:00,68.8,62.7,29.91,West,265,2.0,5.0,81,0.00,,,0.00,Wunderground v.1.15,2013-08-20 16:42:00,
2013-08-20 09:52:00,68.6,62.2,29.91,SW,225,3.0,3.0,80,0.00,,,0.00,Wunderground v.1.15,2013-08-20 16:52:00,
2013-08-20 10:02:00,69.0,62.6,29.91,SW,228,1.0,5.0,80,0.00,,,0.00,Wunderground v.1.15,2013-08-20 17:02:00,
2013-08-20 10:12:00,69.4,62.6,29.91,SW,227,3.0,6.0,79,0.00,,,0.00,Wunderground v.1.15,2013-08-20 17:12:00,
2013-08-20 10:22:00,70.2,63.0,29.91,WSW,237,3.0,3.0,78,0.00,,,0.00,Wunderground v.1.15,2013-08-20 17:22:00,
2013-08-20 10:27:00,70.9,63.0,29.91,SW,221,2.0,3.0,76,0.00,,,0.00,Wunderground v.1.15,2013-08-20 17:27:00,
2013-08-20 10:37:00,71.6,62.9,29.90,West,272,3.0,3.0,74,0.00,,,0.00,Wunderground v.1.15,2013-08-20 17:37:00,
2013-08-20 10:42:00,71.6,63.3,29.90,SSW,212,3.0,4.0,75,0.00,,,0.00,Wunderground v.1.15,2013-08-20 17:42:00,
2013-08-20 10:52:00,72.4,63.3,29.90,WNW,302,2.0,2.0,73,0.00,,,0.00,Wunderground v.1.15,2013-08-20 17:52:00,
2013-08-20 11:02:00,72.8,63.2,29.90,WNW,302,2.0,2.0,72,0.00,,,0.00,Wunderground v.1.15,2013-08-20 18:02:00,
2013-08-20 11:07:00,73.4,63.4,29.90,SW,225,2.0,5.0,71,0.00,,,0.00,Wunderground v.1.15,2013-08-20 18:07:00,
2013-08-20 11:12:00,73.8,63.4,29.90,SW,222,2.0,4.0,70,0.00,,,0.00,Wunderground v.1.15,2013-08-20 18:12:00,
2013-08-20 11:22:00,74.1,63.3,29.90,SSW,196,2.0,2.0,69,0.00,,,0.00,Wunderground v.1.15,2013-08-20 18:22:00,
2013-08-20 11:32:00,75.5,63.8,29.90,SW,221,2.0,3.0,67,0.00,,,0.00,Wunderground v.1.15,2013-08-20 18:32:00,
2013-08-20 11:37:00,75.6,63.4,29.90,NW,314,4.0,4.0,66,0.00,,,0.00,Wunderground v.1.15,2013-08-20 18:37:00,
2013-08-20 11:42:00,75.8,63.6,29.89,SW,230,3.0,3.0,66,0.00,,,0.00,Wunderground v.1.15,2013-08-20 18:42:00,
2013-08-20 11:47:00,76.6,64.0,29.89,WSW,244,2.0,3.0,65,0.00,,,0.00,Wunderground v.1.15,2013-08-20 18:47:00,
2013-08-20 11:57:00,77.3,63.7,29.89,SSW,213,2.0,3.0,63,0.00,,,0.00,Wunderground v.1.15,2013-08-20 18:57:00,
2013-08-20 12:02:00,77.8,64.2,29.88,SW,232,2.0,2.0,63,0.00,,,0.00,Wunderground v.1.15,2013-08-20 19:02:00,
2013-08-20 12:07:00,78.3,64.2,29.88,South,180,2.0,4.0,62,0.00,,,0.00,Wunderground v.1.15,2013-08-20 19:07:00,
2013-08-20 12:12:00,78.8,64.7,29.88,WSW,255,3.0,3.0,62,0.00,,,0.00,Wunderground v.1.15,2013-08-20 19:12:00,
2013-08-20 12:17:00,78.9,64.3,29.88,SSW,207,2.0,4.0,61,0.00,,,0.00,Wunderground v.1.15,2013-08-20 19:17:00,
2013-08-20 12:27:00,78.7,64.1,29.87,SW,219,3.0,3.0,61,0.00,,,0.00,Wunderground v.1.15,2013-08-20 19:27:00,
2013-08-20 12:32:00,79.0,64.4,29.87,SSW,207,3.0,4.0,61,0.00,,,0.00,Wunderground v.1.15,2013-08-20 19:32:00,
2013-08-20 12:37:00,79.6,65.0,29.87,SSW,196,3.0,4.0,61,0.00,,,0.00,Wunderground v.1.15,2013-08-20 19:37:00,
2013-08-20 12:42:00,80.0,64.4,29.87,SW,217,3.0,3.0,59,0.00,,,0.00,Wunderground v.1.15,2013-08-20 19:42:00,
2013-08-20 12:52:00,80.7,64.5,29.86,SW,231,4.0,6.0,58,0.00,,,0.00,Wunderground v.1.15,2013-08-20 19:52:00,
2013-08-20 12:57:00,80.4,63.8,29.86,NW,304,4.0,6.0,57,0.00,,,0.00,Wunderground v.1.15,2013-08-20 19:57:00,
2013-08-20 13:07:00,80.8,64.1,29.86,SSW,211,3.0,5.0,57,0.00,,,0.00,Wunderground v.1.15,2013-08-20 20:07:00,
2013-08-20 13:12:00,81.0,63.8,29.85,NW,309,4.0,4.0,56,0.00,,,0.00,Wunderground v.1.15,2013-08-20 20:12:00,
2013-08-20 13:22:00,81.4,64.2,29.85,SW,236,3.0,3.0,56,0.00,,,0.00,Wunderground v.1.15,2013-08-20 20:22:00,
2013-08-20 13:27:00,82.2,64.4,29.85,West,277,3.0,3.0,55,0.00,,,0.00,Wunderground v.1.15,2013-08-20 20:27:00,
2013-08-20 13:37:00,82.8,63.9,29.85,SW,226,3.0,5.0,53,0.00,,,0.00,Wunderground v.1.15,2013-08-20 20:37:00,
2013-08-20 13:42:00,82.5,64.2,29.85,SW,219,4.0,4.0,54,0.00,,,0.00,Wunderground v.1.15,2013-08-20 20:42:00,
2013-08-20 13:47:00,82.7,63.8,29.85,SSW,213,4.0,6.0,53,0.00,,,0.00,Wunderground v.1.15,2013-08-20 20:47:00,
2013-08-20 13:57:00,82.4,63.5,29.85,WSW,238,4.0,5.0,53,0.00,,,0.00,Wunderground v.1.15,2013-08-20 20:57:00,
2013-08-20 14:07:00,82.7,63.3,29.84,SW,235,5.0,5.0,52,0.00,,,0.00,Wunderground v.1.15,2013-08-20 21:07:00,
2013-08-20 14:12:00,82.9,63.5,29.84,SSW,213,4.0,5.0,52,0.00,,,0.00,Wunderground v.1.15,2013-08-20 21:12:00,
2013-08-20 14:17:00,83.4,62.8,29.84,West,276,4.0,8.0,50,0.00,,,0.00,Wunderground v.1.15,2013-08-20 21:17:00,
2013-08-20 14:22:00,83.6,63.0,29.84,West,277,4.0,5.0,50,0.00,,,0.00,Wunderground v.1.15,2013-08-20 21:22:00,
2013-08-20 14:27:00,83.6,63.0,29.84,WNW,288,4.0,5.0,50,0.00,,,0.00,Wunderground v.1.15,2013-08-20 21:27:00,
2013-08-20 14:32:00,84.3,63.6,29.84,West,271,4.0,4.0,50,0.00,,,0.00,Wunderground v.1.15,2013-08-20 21:32:00,
2013-08-20 14:42:00,84.4,63.2,29.83,West,273,3.0,4.0,49,0.00,,,0.00,Wunderground v.1.15,2013-08-20 21:42:00,
2013-08-20 14:47:00,85.0,63.1,29.83,SSW,210,3.0,6.0,48,0.00,,,0.00,Wunderground v.1.15,2013-08-20 21:47:00,
2013-08-20 14:52:00,84.8,62.9,29.83,WSW,252,4.0,4.0,48,0.00,,,0.00,Wunderground v.1.15,2013-08-20 21:52:00,
2013-08-20 15:02:00,85.1,62.0,29.83,WNW,289,3.0,3.0,46,0.00,,,0.00,Wunderground v.1.15,2013-08-20 22:02:00,
2013-08-20 15:07:00,85.4,62.9,29.83,SW,234,3.0,4.0,47,0.00,,,0.00,Wunderground v.1.15,2013-08-20 22:07:00,
2013-08-20 15:12:00,85.0,62.5,29.83,SW,236,4.0,8.0,47,0.00,,,0.00,Wunderground v.1.15,2013-08-20 22:12:00,
2013-08-20 15:22:00,85.2,62.7,29.83,WSW,248,5.0,5.0,47,0.00,,,0.00,Wunderground v.1.15,2013-08-20 22:22:00,
2013-08-20 15:27:00,85.8,62.6,29.83,West,281,5.0,5.0,46,0.00,,,0.00,Wunderground v.1.15,2013-08-20 22:27:00,
2013-08-20 15:37:00,85.1,62.6,29.82,South,190,5.0,5.0,47,0.00,,,0.00,Wunderground v.1.15,2013-08-20 22:37:00,
2013-08-20 15:42:00,85.3,62.2,29.82,West,266,4.0,4.0,46,0.00,,,0.00,Wunderground v.1.15,2013-08-20 22:42:00,
2013-08-20 15:47:00,85.1,62.6,29.82,WSW,238,4.0,5.0,47,0.00,,,0.00,Wunderground v.1.15,2013-08-20 22:47:00,
2013-08-20 15:52:00,84.7,62.2,29.82,SW,223,5.0,5.0,47,0.00,,,0.00,Wunderground v.1.15,2013-08-20 22:52:00,
2013-08-20 15:57:00,84.5,62.7,29.82,West,269,5.0,5.0,48,0.00,,,0.00,Wunderground v.1.15,2013-08-20 22:57:00,
2013-08-20 16:07:00,84.6,63.3,29.82,West,273,5.0,6.0,49,0.00,,,0.00,Wunderground v.1.15,2013-08-20 23:07:00,
2013-08-20 16:12:00,84.5,63.2,29.82,WSW,250,5.0,7.0,49,0.00,,,0.00,Wunderground v.1.15,2013-08-20 23:12:00,
2013-08-20 16:22:00,83.8,61.4,29.81,West,279,5.0,5.0,47,0.00,,,0.00,Wunderground v.1.15,2013-08-20 23:22:00,
2013-08-20 16:27:00,84.1,61.7,29.81,West,276,4.0,6.0,47,0.00,,,0.00,Wunderground v.1.15,2013-08-20 23:27:00,
2013-08-20 16:37:00,83.0,62.4,29.81,SW,236,5.0,8.0,50,0.00,,,0.00,Wunderground v.1.15,2013-08-20 23:37:00,
2013-08-20 16:42:00,82.9,62.9,29.81,SW,234,5.0,7.0,51,0.00,,,0.00,Wunderground v.1.15,2013-08-20 23:42:00,
2013-08-20 16:47:00,83.1,63.7,29.81,NW,312,4.0,7.0,52,0.00,,,0.00,Wunderground v.1.15,2013-08-20 23:47:00,
2013-08-20 16:57:00,82.5,63.6,29.81,WNW,290,4.0,6.0,53,0.00,,,0.00,Wunderground v.1.15,2013-08-20 23:57:00,
2013-08-20 17:02:00,82.2,63.4,29.81,West,272,4.0,5.0,53,0.00,,,0.00,Wunderground v.1.15,2013-08-21 00:02:00,
2013-08-20 17:12:00,82.2,62.8,29.80,WSW,247,4.0,4.0,52,0.00,,,0.00,Wunderground v.1.15,2013-08-21 00:12:00,
2013-08-20 17:22:00,82.6,62.1,29.80,SW,232,4.0,5.0,50,0.00,,,0.00,Wunderground v.1.15,2013-08-21 00:22:00,
2013-08-20 17:27:00,81.9,62.0,29.80,WNW,284,5.0,7.0,51,0.00,,,0.00,Wunderground v.1.15,2013-08-21 00:27:00,
2013-08-20 17:37:00,81.0,62.3,29.80,West,275,5.0,5.0,53,0.00,,,0.00,Wunderground v.1.15,2013-08-21 00:37:00,
2013-08-20 17:47:00,80.6,61.9,29.80,SW,234,5.0,6.0,53,0.00,,,0.00,Wunderground v.1.15,2013-08-21 00:47:00,
2013-08-20 17:52:00,79.4,61.3,29.80,SW,215,5.0,5.0,54,0.00,,,0.00,Wunderground v.1.15,2013-08-21 00:52:00,
2013-08-20 17:57:00,79.3,62.2,29.80,West,279,5.0,5.0,56,0.00,,,0.00,Wunderground v.1.15,2013-08-21 00:57:00,
2013-08-20 18:07:00,78.6,61.6,29.80,NW,306,4.0,4.0,56,0.00,,,0.00,Wunderground v.1.15,2013-08-21 01:07:00,
2013-08-20 18:17:00,78.0,62.0,29.80,WSW,242,3.0,5.0,58,0.00,,,0.00,Wunderground v.1.15,2013-08-21 01:17:00,
2013-08-20 18:22:00,77.7,61.7,29.81,WSW,249,3.0,3.0,58,0.00,,,0.00,Wunderground v.1.15,2013-08-21 01:22:00,
2013-08-20 18:27:00,77.0,61.6,29.81,West,278,3.0,4.0,59,0.00,,,0.00,Wunderground v.1.15,2013-08-21 01:27:00,
2013-08-20 18:37:00,76.4,61.5,29.81,WSW,247,3.0,3.0,60,0.00,,,0.00,Wunderground v.1.15,2013-08-21 01:37:00,
2013-08-20 18:42:00,75.8,61.4,29.81,WNW,296,3.0,3.0,61,0.00,,,0.00,Wunderground v.1.15,2013-08-21 01:42:00,
2013-08-20 18:47:00,75.4,61.5,29.81,West,278,3.0,3.0,62,0.00,,,0.00,Wunderground v.1.15,2013-08-21 01:47:00,
2013-08-20 18:57:00,75.1,61.6,29.81,SW,234,3.0,4.0,63,0.00,,,0.00,Wunderground v.1.15,2013-08-21 01:57:00,
2013-08-20 19:02:00,74.4,61.9,29.81,West,278,3.0,3.0,65,0.00,,,0.00,Wunderground v.1.15,2013-08-21 02:02:00,
2013-08-20 19:07:00,74.0,61.9,29.82,SW,232,3.0,3.0,66,0.00,,,0.00,Wunderground v.1.15,2013-08-21 02:07:00,
2013-08-20 19:12:00,73.7,61.6,29.82,WSW,244,3.0,6.0,66,0.00,,,0.00,Wunderground v.1.15,2013-08-21 02:12:00,
2013-08-20 19:22:00,72.7,61.1,29.82,WSW,241,3.0,3.0,67,0.00,,,0.00,Wunderground v.1.15,2013-08-21 02:22:00,
2013-08-20 19:32:00,72.0,61.3,29.82,West,281,2.0,4.0,69,0.00,,,0.00,Wunderground v.1.15,2013-08-21 02:32:00,
2013-08-20 19:37:00,71.5,60.8,29.82,WNW,284,3.0,4.0,69,0.00,,,0.00,Wunderground v.1.15,2013-08-21 02:37:00,
2013-08-20 19:42:00,71.3,61.0,29.82,SW,232,3.0,3.0,70,0.00,,,0.00,Wunderground v.1.15,2013-08-21 02:42:00,
2013-08-20 19:47:00,71.1,61.2,29.82,West,275,2.0,3.0,71,0.00,,,0.00,Wunderground v.1.15,2013-08-21 02:47:00,
2013-08-20 19:57:00,70.6,60.7,29.83,WNW,302,3.0,3.0,71,0.00,,,0.00,Wunderground v.1.15,2013-08-21 02:57:00,
2013-08-20 20:07:00,70.0,60.9,29.83,West,269,3.0,3.0,73,0.00,,,0.00,Wunderground v.1.15,2013-08-21 03:07:00,
2013-08-20 20:12:00,69.7,61.0,29.84,WNW,301,2.0,2.0,74,0.00,,,0.00,Wunderground v.1.15,2013-08-21 03:12:00,
2013-08-20 20:17:00,69.6,60.9,29.84,SW,229,2.0,2.0,74,0.00,,,0.00,Wunderground v.1.15,2013-08-21 03:17:00,
2013-08-20 20:22:00,69.4,60.8,29.84,WNW,300,2.0,2.0,74,0.00,,,0.00,Wunderground v.1.15,2013-08-21 03:22:00,
2013-08-20 20:32:00,68.8,60.6,29.84,WNW,288,3.0,3.0,75,0.00,,,0.00,Wunderground v.1.15,2013-08-21 03:32:00,
2013-08-20 20:37:00,68.6,60.4,29.85,West,279,3.0,5.0,75,0.00,,,0.00,Wunderground v.1.15,2013-08-21 03:37:00,
2013-08-20 20:47:00,68.2,60.3,29.85,West,281,2.0,3.0,76,0.00,,,0.00,Wunderground v.1.15,2013-08-21 03:47:00,
2013-08-20 20:52:00,68.1,60.2,29.85,WSW,256,3.0,3.0,76,0.00,,,0.00,Wunderground v.1.15,2013-08-21 03:52:00,
2013-08-20 20:57:00,68.1,60.2,29.85,West,275,2.0,3.0,76,0.00,,,0.00,Wunderground v.1.15,2013-08-21 03:57:00,
2013-08-20 21:02:00,68.0,60.5,29.86,SW,222,3.0,3.0,77,0.00,,,0.00,Wunderground v.1.15,2013-08-21 04:02:00,
2013-08-20 21:07:00,67.8,60.3,29.86,WSW,244,3.0,3.0,77,0.00,,,0.00,Wunderground v.1.15,2013-08-21 04:07:00,
2013-08-20 21:12:00,67.7,60.2,29.86,West,272,3.0,3.0,77,0.00,,,0.00,Wunderground v.1.15,2013-08-21 04:12:00,
2013-08-20 21:17:00,67.7,60.2,29.86,West,265,2.0,3.0,77,0.00,,,0.00,Wunderground v.1.15,2013-08-21 04:17:00,
2013-08-20 21:27:00,67.3,60.2,29.86,NW,306,1.0,2.0,78,0.00,,,0.00,Wunderground v.1.15,2013-08-21 04:27:00,
2013-08-20 21:32:00,67.1,60.0,29.86,West,271,2.0,3.0,78,0.00,,,0.00,Wunderground v.1.15,2013-08-21 04:32:00,
2013-08-20 21:37:00,67.0,60.3,29.86,WNW,302,2.0,3.0,79,0.00,,,0.00,Wunderground v.1.15,2013-08-21 04:37:00,
2013-08-20 21:42:00,66.9,60.2,29.87,WSW,239,2.0,2.0,79,0.00,,,0.00,Wunderground v.1.15,2013-08-21 04:42:00,
2013-08-20 21:47:00,66.9,60.2,29.87,WSW,240,3.0,3.0,79,0.00,,,0.00,Wunderground v.1.15,2013-08-21 04:47:00,
2013-08-20 21:57:00,66.6,59.9,29.87,WNW,286,2.0,3.0,79,0.00,,,0.00,Wunderground v.1.15,2013-08-21 04:57:00,
2013-08-20 22:02:00,66.4,60.0,29.87,NW,310,2.0,2.0,80,0.00,,,0.00,Wunderground v.1.15,2013-08-21 05:02:00,
2013-08-20 22:07:00,66.3,59.9,29.87,NW,304,2.0,2.0,80,0.00,,,0.00,Wunderground v.1.15,2013-08-21 05:07:00,
2013-08-20 22:12:00,66.2,59.8,29.87,North,9,2.0,2.0,80,0.00,,,0.00,Wunderground v.1.15,2013-08-21 05:12:00,
2013-08-20 22:22:00,66.0,60.0,29.87,NW,307,2.0,2.0,81,0.00,,,0.00,Wunderground v.1.15,2013-08-21 05:22:00,
2013-08-20 22:32:00,65.9,59.9,29.87,WNW,296,1.0,1.0,81,0.00,,,0.00,Wunderground v.1.15,2013-08-21 05:32:00,
2013-08-20 22:42:00,65.8,59.8,29.87,West,279,1.0,1.0,81,0.00,,,0.00,Wunderground v.1.15,2013-08-21 05:42:00,
2013-08-20 22:47:00,65.8,59.8,29.87,WNW,287,1.0,2.0,81,0.00,,,0.00,Wunderground v.1.15,2013-08-21 05:47:00,
2013-08-20 22:57:00,65.7,60.1,29.87,West,273,1.0,2.0,82,0.00,,,0.00,Wunderground v.1.15,2013-08-21 05:57:00,
2013-08-20 23:02:00,65.6,60.0,29.87,West,273,1.0,1.0,82,0.00,,,0.00,Wunderground v.1.15,2013-08-21 06:02:00,
2013-08-20 23:07:00,65.6,60.0,29.87,West,273,1.0,1.0,82,0.00,,,0.00,Wunderground v.1.15,2013-08-21 06:07:00,
2013-08-20 23:12:00,65.6,60.0,29.87,West,273,2.0,2.0,82,0.00,,,0.00,Wunderground v.1.15,2013-08-21 06:12:00,
2013-08-20 23:17:00,65.5,59.9,29.87,WNW,288,1.0,2.0,82,0.00,,,0.00,Wunderground v.1.15,2013-08-21 06:17:00,
2013-08-20 23:22:00,65.5,59.9,29.88,WNW,288,1.0,1.0,82,0.00,,,0.00,Wunderground v.1.15,2013-08-21 06:22:00,
2013-08-20 23:27:00,65.5,60.2,29.88,WNW,288,1.0,1.0,83,0.00,,,0.00,Wunderground v.1.15,2013-08-21 06:27:00,
2013-08-20 23:37:00,65.4,60.1,29.88,WNW,288,0.0,1.0,83,0.00,,,0.00,Wunderground v.1.15,2013-08-21 06:37:00,
2013-08-20 23:47:00,65.4,60.4,29.88,WNW,286,1.0,1.0,84,0.00,,,0.00,Wunderground v.1.15,2013-08-21 06:47:00,
2013-08-20 23:57:00,65.5,60.2,29.88,WNW,286,1.0,1.0,83,0.00,,,0.00,Wunderground v.1.15,2013-08-21 06:57:00,